TURKSAT 3A

Last updated on Oct. 1, 2020, 5:42 a.m. UTC

1 33056U 08030B   20274.97271512  .00000133  00000-0  00000+0 0  9993
2 33056   0.0711  87.6830 0004261  81.0904 233.5620  1.00272121 45179
UTC
Height (km)
Latitude
Longitude
Inclination
Orbital Period
UTC large
Height (km)
Speed (km/s)
/
Latitude / Longitude
Inclination (degrees)
Orbital Period (minutes)
Azimuth
Elevation
Range (km)
Doppler Factor
iOS Compass Heading
iOS Angle

Next 30 passes for location: Hong Kong

Rise time Rise Azimuth (degrees) Set time Set Azimuth (degrees) Duration Max altitude (degrees)

No matching passes for this satellites